Time,TemperatureF,DewpointF,PressureIn,WindDirection,WindDirectionDegrees,WindSpeedMPH,WindSpeedGustMPH,Humidity,HourlyPrecipIn,Conditions,Clouds,dailyrainin,SoftwareType,DateUTC
2013-04-30 00:01:00,62.9,62.0,29.99,SSW,209,2.0,3.0,97,0.00,,---,0.00,VWS V14.01,2013-04-30 04:01:00,
2013-04-30 00:02:00,62.9,62.0,29.99,SSW,209,2.0,3.0,97,0.00,,---,0.00,VWS V14.01,2013-04-30 04:02:00,
2013-04-30 00:03:00,62.9,62.0,29.99,SSW,209,2.0,3.0,97,0.00,,---,0.00,VWS V14.01,2013-04-30 04:03:00,
2013-04-30 00:08:00,62.9,62.0,30.00,SW,232,2.0,3.0,97,0.00,,---,0.00,VWS V14.01,2013-04-30 04:08:00,
2013-04-30 00:13:00,62.8,61.9,30.00,WNW,282,4.0,4.0,97,0.00,,---,0.00,VWS V14.01,2013-04-30 04:13:00,
2013-04-30 00:19:00,62.9,62.0,30.00,WNW,282,3.0,4.0,97,0.00,,---,0.00,VWS V14.01,2013-04-30 04:19:00,
2013-04-30 00:24:00,62.9,62.0,30.00,NW,320,2.0,4.0,97,0.00,,---,0.00,VWS V14.01,2013-04-30 04:24:00,
2013-04-30 00:29:00,62.9,62.0,30.00,NW,322,2.0,3.0,97,0.00,,---,0.00,VWS V14.01,2013-04-30 04:29:00,
2013-04-30 00:34:00,62.9,62.0,29.99,NW,322,1.0,3.0,97,0.00,,---,0.00,VWS V14.01,2013-04-30 04:34:00,
2013-04-30 00:39:00,62.9,62.0,29.99,NW,322,0.0,3.0,97,0.00,,---,0.00,VWS V14.01,2013-04-30 04:39:00,
2013-04-30 00:44:00,62.8,61.9,30.00,NW,322,0.0,3.0,97,0.00,,---,0.00,VWS V14.01,2013-04-30 04:44:00,
2013-04-30 00:49:00,62.7,61.8,29.99,NW,322,1.0,3.0,97,0.00,,---,0.00,VWS V14.01,2013-04-30 04:49:00,
2013-04-30 00:54:00,62.7,61.8,29.99,NW,322,0.0,3.0,97,0.00,,---,0.00,VWS V14.01,2013-04-30 04:54:00,
2013-04-30 00:59:00,62.6,61.7,29.99,NW,322,0.0,0.0,97,0.00,,---,0.00,VWS V14.01,2013-04-30 04:59:00,
2013-04-30 01:04:00,62.5,61.6,29.99,NW,322,2.0,2.0,97,0.00,,---,0.00,VWS V14.01,2013-04-30 05:04:00,
2013-04-30 01:09:00,62.6,61.7,29.99,North,349,3.0,3.0,97,0.00,,---,0.00,VWS V14.01,2013-04-30 05:09:00,
2013-04-30 01:14:00,62.6,61.7,29.99,North,5,3.0,4.0,97,0.00,,---,0.00,VWS V14.01,2013-04-30 05:14:00,
2013-04-30 01:19:00,62.6,61.7,29.99,North,5,2.0,4.0,97,0.00,,---,0.00,VWS V14.01,2013-04-30 05:19:00,
2013-04-30 01:24:00,62.6,61.7,29.99,North,9,3.0,4.0,97,0.00,,---,0.00,VWS V14.01,2013-04-30 05:24:00,
2013-04-30 01:29:00,62.6,61.7,29.99,North,9,0.0,1.0,97,0.00,,---,0.00,VWS V14.01,2013-04-30 05:29:00,
2013-04-30 01:34:00,62.5,61.6,29.99,North,9,0.0,1.0,97,0.00,,---,0.00,VWS V14.01,2013-04-30 05:34:00,
2013-04-30 01:39:00,62.4,61.5,29.99,North,9,1.0,1.0,97,0.00,,---,0.00,VWS V14.01,2013-04-30 05:39:00,
2013-04-30 01:44:00,62.3,61.4,29.99,North,9,0.0,2.0,97,0.00,,---,0.00,VWS V14.01,2013-04-30 05:44:00,
2013-04-30 01:49:00,62.3,61.4,29.98,North,9,0.0,2.0,97,0.00,,---,0.00,VWS V14.01,2013-04-30 05:49:00,
2013-04-30 01:54:00,62.2,61.3,29.98,North,9,0.0,2.0,97,0.00,,---,0.00,VWS V14.01,2013-04-30 05:54:00,
2013-04-30 01:59:00,62.2,61.3,29.98,North,9,0.0,0.0,97,0.00,,---,0.00,VWS V14.01,2013-04-30 05:59:00,
2013-04-30 02:04:00,62.1,61.2,29.98,North,9,0.0,0.0,97,0.00,,---,0.00,VWS V14.01,2013-04-30 06:04:00,
2013-04-30 02:09:00,62.1,61.2,29.98,North,9,0.0,0.0,97,0.00,,---,0.00,VWS V14.01,2013-04-30 06:09:00,
2013-04-30 02:14:00,62.0,61.1,29.98,North,9,0.0,0.0,97,0.00,,---,0.00,VWS V14.01,2013-04-30 06:14:00,
2013-04-30 02:19:00,61.9,61.0,29.98,North,9,0.0,0.0,97,0.00,,---,0.00,VWS V14.01,2013-04-30 06:19:00,
2013-04-30 02:24:00,61.8,60.9,29.98,North,9,0.0,0.0,97,0.00,,---,0.00,VWS V14.01,2013-04-30 06:24:00,
2013-04-30 02:29:00,61.9,61.0,29.98,North,9,0.0,0.0,97,0.00,,---,0.00,VWS V14.01,2013-04-30 06:29:00,
2013-04-30 02:34:00,61.9,61.0,29.97,North,9,1.0,1.0,97,0.00,,---,0.00,VWS V14.01,2013-04-30 06:34:00,
2013-04-30 02:39:00,61.9,61.0,29.97,North,9,3.0,4.0,97,0.00,,---,0.00,VWS V14.01,2013-04-30 06:39:00,
2013-04-30 02:44:00,61.9,61.0,29.97,North,9,1.0,4.0,97,0.00,,---,0.00,VWS V14.01,2013-04-30 06:44:00,
2013-04-30 02:49:00,61.9,61.0,29.97,North,9,1.0,4.0,97,0.00,,---,0.00,VWS V14.01,2013-04-30 06:49:00,
2013-04-30 02:54:00,61.9,61.0,29.97,North,9,1.0,4.0,97,0.00,,---,0.00,VWS V14.01,2013-04-30 06:54:00,
2013-04-30 02:59:00,62.0,61.1,29.97,NNE,15,4.0,4.0,97,0.00,,---,0.00,VWS V14.01,2013-04-30 06:59:00,
2013-04-30 03:04:00,62.1,61.2,29.97,NNE,17,2.0,5.0,97,0.00,,---,0.00,VWS V14.01,2013-04-30 07:04:00,
2013-04-30 03:09:00,62.0,61.1,29.97,NNE,17,4.0,5.0,97,0.00,,---,0.00,VWS V14.01,2013-04-30 07:09:00,
2013-04-30 03:14:00,61.7,60.8,29.98,NNE,12,6.0,6.0,97,0.00,,---,0.00,VWS V14.01,2013-04-30 07:14:00,
2013-04-30 03:19:00,61.6,60.7,29.97,NNE,26,4.0,6.0,97,0.00,,---,0.00,VWS V14.01,2013-04-30 07:19:00,
2013-04-30 03:24:00,61.6,60.7,29.97,NNE,25,3.0,6.0,97,0.00,,---,0.00,VWS V14.01,2013-04-30 07:24:00,
2013-04-30 03:29:00,61.6,60.7,29.98,NNE,24,3.0,4.0,97,0.00,,---,0.00,VWS V14.01,2013-04-30 07:29:00,
2013-04-30 03:34:00,61.6,60.7,29.98,NNE,22,3.0,4.0,97,0.00,,---,0.00,VWS V14.01,2013-04-30 07:34:00,
2013-04-30 03:39:00,61.6,61.0,29.98,NNE,19,5.0,5.0,98,0.00,,---,0.00,VWS V14.01,2013-04-30 07:39:00,
2013-04-30 03:44:00,61.5,60.6,29.98,North,10,5.0,6.0,97,0.00,,---,0.00,VWS V14.01,2013-04-30 07:44:00,
2013-04-30 03:49:00,61.5,60.9,29.98,NNE,21,4.0,6.0,98,0.00,,---,0.00,VWS V14.01,2013-04-30 07:49:00,
2013-04-30 03:54:00,61.5,60.9,29.98,NNE,20,3.0,6.0,98,0.00,,---,0.00,VWS V14.01,2013-04-30 07:54:00,
2013-04-30 03:59:00,61.7,61.1,29.98,NNE,17,4.0,5.0,98,0.00,,---,0.00,VWS V14.01,2013-04-30 07:59:00,
2013-04-30 04:04:00,61.6,61.0,29.98,NNE,13,3.0,5.0,98,0.00,,---,0.00,VWS V14.01,2013-04-30 08:04:00,
2013-04-30 04:09:00,61.6,61.0,29.98,NNE,21,4.0,5.0,98,0.00,,---,0.00,VWS V14.01,2013-04-30 08:09:00,
2013-04-30 04:14:00,61.7,61.1,29.98,NNE,19,3.0,5.0,98,0.00,,---,0.00,VWS V14.01,2013-04-30 08:14:00,
2013-04-30 04:19:00,61.6,60.7,29.98,NNE,26,5.0,5.0,97,0.00,,---,0.00,VWS V14.01,2013-04-30 08:19:00,
2013-04-30 04:24:00,61.5,60.6,29.98,NNE,19,5.0,9.0,97,0.00,,---,0.00,VWS V14.01,2013-04-30 08:24:00,
2013-04-30 04:29:00,61.2,60.3,29.98,NNE,16,8.0,9.0,97,0.00,,---,0.00,VWS V14.01,2013-04-30 08:29:00,
2013-04-30 04:34:00,61.1,60.2,29.98,NNE,28,6.0,10.0,97,0.00,,---,0.00,VWS V14.01,2013-04-30 08:34:00,
2013-04-30 04:39:00,60.9,60.0,29.98,NNE,28,7.0,10.0,97,0.00,,---,0.00,VWS V14.01,2013-04-30 08:39:00,
2013-04-30 04:44:00,60.8,60.2,29.99,NNE,25,6.0,10.0,98,0.00,,---,0.00,VWS V14.01,2013-04-30 08:44:00,
2013-04-30 04:49:00,60.9,60.3,29.99,NNE,26,6.0,10.0,98,0.00,,---,0.00,VWS V14.01,2013-04-30 08:49:00,
2013-04-30 04:54:00,60.8,60.2,29.99,NNE,20,5.0,10.0,98,0.00,,---,0.00,VWS V14.01,2013-04-30 08:54:00,
2013-04-30 05:00:00,60.7,59.8,29.99,NNE,17,6.0,7.0,97,0.00,,---,0.00,VWS V14.01,2013-04-30 09:00:00,
2013-04-30 05:05:00,60.7,60.1,29.99,NNE,19,6.0,7.0,98,0.00,,---,0.00,VWS V14.01,2013-04-30 09:05:00,
2013-04-30 05:10:00,60.6,60.0,29.99,NNE,18,6.0,9.0,98,0.00,,---,0.00,VWS V14.01,2013-04-30 09:10:00,
2013-04-30 05:14:00,60.5,59.9,29.99,NNE,15,6.0,9.0,98,0.00,,---,0.00,VWS V14.01,2013-04-30 09:14:00,
2013-04-30 05:19:00,60.4,59.8,30.00,NNE,22,8.0,11.0,98,0.00,,---,0.00,VWS V14.01,2013-04-30 09:19:00,
2013-04-30 05:24:00,60.4,59.8,30.00,NNE,20,5.0,11.0,98,0.00,,---,0.00,VWS V14.01,2013-04-30 09:24:00,
2013-04-30 05:30:00,60.4,59.8,30.00,NNE,28,7.0,7.0,98,0.00,,---,0.00,VWS V14.01,2013-04-30 09:30:00,
2013-04-30 05:35:00,60.4,59.8,30.00,NNE,28,5.0,9.0,98,0.00,,---,0.00,VWS V14.01,2013-04-30 09:35:00,
2013-04-30 05:40:00,60.3,59.7,30.00,NNE,29,6.0,9.0,98,0.00,,---,0.00,VWS V14.01,2013-04-30 09:40:00,
2013-04-30 05:45:00,60.4,59.8,30.00,NNE,31,7.0,9.0,98,0.00,,---,0.00,VWS V14.01,2013-04-30 09:45:00,
2013-04-30 05:50:00,60.4,59.8,30.00,NNE,23,8.0,9.0,98,0.00,,---,0.00,VWS V14.01,2013-04-30 09:50:00,
2013-04-30 05:55:00,60.4,59.8,30.01,NNE,25,7.0,9.0,98,0.00,,---,0.00,VWS V14.01,2013-04-30 09:55:00,
2013-04-30 06:00:00,60.4,59.8,30.01,NNE,31,5.0,6.0,98,0.00,,---,0.00,VWS V14.01,2013-04-30 10:00:00,
2013-04-30 06:05:00,60.6,60.0,30.01,NNE,32,5.0,7.0,98,0.00,,---,0.00,VWS V14.01,2013-04-30 10:05:00,
2013-04-30 06:10:00,60.7,60.1,30.01,NE,46,4.0,7.0,98,0.00,,---,0.00,VWS V14.01,2013-04-30 10:10:00,
2013-04-30 06:15:00,60.8,60.2,30.01,NE,38,6.0,7.0,98,0.00,,---,0.00,VWS V14.01,2013-04-30 10:15:00,
2013-04-30 06:20:00,61.0,60.4,30.01,NNE,30,8.0,8.0,98,0.00,,---,0.00,VWS V14.01,2013-04-30 10:20:00,
2013-04-30 06:25:00,61.2,60.6,30.02,NNE,24,6.0,9.0,98,0.00,,---,0.00,VWS V14.01,2013-04-30 10:25:00,
2013-04-30 06:30:00,61.2,60.6,30.02,NNE,23,7.0,9.0,98,0.00,,---,0.00,VWS V14.01,2013-04-30 10:30:00,
2013-04-30 06:35:00,61.3,60.7,30.02,NNE,31,6.0,11.0,98,0.00,,---,0.00,VWS V14.01,2013-04-30 10:35:00,
2013-04-30 06:40:00,61.3,60.7,30.02,NE,45,7.0,12.0,98,0.00,,---,0.00,VWS V14.01,2013-04-30 10:40:00,
2013-04-30 06:45:00,61.3,60.7,30.02,NNE,28,7.0,12.0,98,0.00,,---,0.00,VWS V14.01,2013-04-30 10:45:00,
2013-04-30 06:50:00,61.3,60.7,30.02,NE,37,10.0,12.0,98,0.00,,---,0.00,VWS V14.01,2013-04-30 10:50:00,
2013-04-30 06:55:00,61.3,60.7,30.03,NE,52,7.0,12.0,98,0.00,,---,0.00,VWS V14.01,2013-04-30 10:55:00,
2013-04-30 07:00:00,61.3,60.7,30.03,NE,46,9.0,11.0,98,0.00,,---,0.00,VWS V14.01,2013-04-30 11:00:00,
2013-04-30 07:05:00,61.3,60.7,30.03,NE,53,8.0,11.0,98,0.00,,---,0.00,VWS V14.01,2013-04-30 11:05:00,
2013-04-30 07:10:00,61.3,60.7,30.03,NE,46,6.0,11.0,98,0.00,,---,0.00,VWS V14.01,2013-04-30 11:10:00,
2013-04-30 07:15:00,61.4,60.8,30.03,NE,49,9.0,11.0,98,0.00,,---,0.00,VWS V14.01,2013-04-30 11:15:00,
2013-04-30 07:20:00,61.4,60.8,30.03,NE,42,9.0,11.0,98,0.00,,---,0.00,VWS V14.01,2013-04-30 11:20:00,
2013-04-30 07:25:00,61.5,60.9,30.03,NE,46,7.0,11.0,98,0.00,,---,0.00,VWS V14.01,2013-04-30 11:25:00,
2013-04-30 07:30:00,61.6,61.0,30.03,NE,48,10.0,11.0,98,0.00,,---,0.00,VWS V14.01,2013-04-30 11:30:00,
2013-04-30 07:35:00,61.6,61.0,30.03,NE,47,7.0,11.0,98,0.00,,---,0.00,VWS V14.01,2013-04-30 11:35:00,
2013-04-30 07:40:00,61.7,61.1,30.04,NE,53,6.0,11.0,98,0.00,,---,0.00,VWS V14.01,2013-04-30 11:40:00,
2013-04-30 07:45:00,61.8,61.2,30.04,NE,54,4.0,11.0,98,0.00,,---,0.00,VWS V14.01,2013-04-30 11:45:00,
2013-04-30 07:50:00,62.0,61.4,30.04,NE,48,7.0,11.0,98,0.00,,---,0.00,VWS V14.01,2013-04-30 11:50:00,
2013-04-30 07:55:00,62.1,61.5,30.04,NE,44,8.0,11.0,98,0.00,,---,0.00,VWS V14.01,2013-04-30 11:55:00,
2013-04-30 08:00:00,62.2,61.6,30.04,NE,55,5.0,9.0,98,0.00,,---,0.00,VWS V14.01,2013-04-30 12:00:00,
2013-04-30 08:05:00,62.3,61.7,30.04,NE,49,6.0,9.0,98,0.00,,---,0.00,VWS V14.01,2013-04-30 12:05:00,
2013-04-30 08:10:00,62.4,61.8,30.04,NE,47,6.0,9.0,98,0.00,,---,0.00,VWS V14.01,2013-04-30 12:10:00,
2013-04-30 08:15:00,62.5,61.9,30.04,NE,46,8.0,9.0,98,0.00,,---,0.00,VWS V14.01,2013-04-30 12:15:00,
2013-04-30 08:20:00,62.6,62.0,30.04,NE,49,7.0,9.0,98,0.00,,---,0.00,VWS V14.01,2013-04-30 12:20:00,
2013-04-30 08:25:00,62.7,62.1,30.04,ENE,57,5.0,9.0,98,0.00,,---,0.00,VWS V14.01,2013-04-30 12:25:00,
2013-04-30 08:30:00,62.8,62.2,30.05,ENE,65,5.0,9.0,98,0.00,,---,0.00,VWS V14.01,2013-04-30 12:30:00,
2013-04-30 08:35:00,62.9,62.3,30.05,ENE,66,7.0,9.0,98,0.00,,---,0.00,VWS V14.01,2013-04-30 12:35:00,
2013-04-30 08:41:00,63.0,62.4,30.05,ENE,59,5.0,10.0,98,0.00,,---,0.00,VWS V14.01,2013-04-30 12:41:00,
2013-04-30 08:46:00,63.1,62.5,30.05,NE,53,3.0,11.0,98,0.00,,---,0.00,VWS V14.01,2013-04-30 12:46:00,
2013-04-30 08:51:00,63.3,62.7,30.05,NE,52,8.0,11.0,98,0.00,,---,0.00,VWS V14.01,2013-04-30 12:51:00,
2013-04-30 08:56:00,63.4,62.8,30.05,NE,45,9.0,11.0,98,0.00,,---,0.00,VWS V14.01,2013-04-30 12:56:00,
2013-04-30 09:01:00,63.5,62.9,30.05,NE,44,6.0,10.0,98,0.00,,---,0.00,VWS V14.01,2013-04-30 13:01:00,
2013-04-30 09:06:00,63.7,63.1,30.05,NE,47,6.0,10.0,98,0.00,,---,0.00,VWS V14.01,2013-04-30 13:06:00,
2013-04-30 09:11:00,63.9,63.3,30.05,NE,53,7.0,10.0,98,0.00,,---,0.00,VWS V14.01,2013-04-30 13:11:00,
2013-04-30 09:16:00,64.0,63.4,30.05,ENE,59,12.0,12.0,98,0.00,,---,0.00,VWS V14.01,2013-04-30 13:16:00,
2013-04-30 09:21:00,64.1,63.2,30.05,ENE,58,9.0,12.0,97,0.00,,---,0.00,VWS V14.01,2013-04-30 13:21:00,
2013-04-30 09:26:00,64.2,63.3,30.05,NE,51,8.0,12.0,97,0.00,,---,0.00,VWS V14.01,2013-04-30 13:26:00,
2013-04-30 09:31:00,64.2,63.3,30.05,ENE,63,9.0,11.0,97,0.00,,---,0.00,VWS V14.01,2013-04-30 13:31:00,
2013-04-30 09:36:00,64.3,63.4,30.05,ENE,63,10.0,12.0,97,0.00,,---,0.00,VWS V14.01,2013-04-30 13:36:00,
2013-04-30 09:41:00,64.2,63.3,30.05,ENE,65,11.0,12.0,97,0.00,,---,0.00,VWS V14.01,2013-04-30 13:41:00,
2013-04-30 09:46:00,64.3,63.4,30.05,ENE,65,8.0,12.0,97,0.00,,---,0.00,VWS V14.01,2013-04-30 13:46:00,
2013-04-30 09:51:00,64.4,63.2,30.05,NE,43,9.0,12.0,96,0.00,,---,0.00,VWS V14.01,2013-04-30 13:51:00,
2013-04-30 09:56:00,64.5,63.3,30.05,NE,55,6.0,12.0,96,0.00,,---,0.00,VWS V14.01,2013-04-30 13:56:00,
2013-04-30 10:01:00,64.7,63.5,30.05,ENE,59,4.0,9.0,96,0.00,,---,0.00,VWS V14.01,2013-04-30 14:01:00,
2013-04-30 10:06:00,64.8,63.6,30.05,ENE,60,5.0,9.0,96,0.00,,---,0.00,VWS V14.01,2013-04-30 14:06:00,
2013-04-30 10:11:00,64.9,63.7,30.05,ENE,69,5.0,9.0,96,0.00,,---,0.00,VWS V14.01,2013-04-30 14:11:00,
2013-04-30 10:16:00,65.1,63.9,30.05,ENE,57,7.0,10.0,96,0.00,,---,0.00,VWS V14.01,2013-04-30 14:16:00,
2013-04-30 10:21:00,65.3,64.1,30.05,NE,53,5.0,10.0,96,0.00,,---,0.00,VWS V14.01,2013-04-30 14:21:00,
2013-04-30 10:26:00,65.5,64.3,30.05,NE,53,6.0,10.0,96,0.00,,---,0.00,VWS V14.01,2013-04-30 14:26:00,
2013-04-30 10:31:00,65.8,64.3,30.06,ENE,74,7.0,9.0,95,0.00,,---,0.00,VWS V14.01,2013-04-30 14:31:00,
2013-04-30 10:36:00,66.1,64.6,30.06,East,96,2.0,9.0,95,0.00,,---,0.00,VWS V14.01,2013-04-30 14:36:00,
2013-04-30 10:41:00,66.7,65.2,30.06,ESE,109,6.0,9.0,95,0.00,,---,0.00,VWS V14.01,2013-04-30 14:41:00,
2013-04-30 10:46:00,66.9,65.4,30.06,ESE,111,5.0,10.0,95,0.00,,---,0.00,VWS V14.01,2013-04-30 14:46:00,
2013-04-30 10:51:00,67.0,65.2,30.06,ESE,115,5.0,10.0,94,0.00,,---,0.00,VWS V14.01,2013-04-30 14:51:00,
2013-04-30 10:56:00,67.2,65.4,30.05,ESE,109,10.0,14.0,94,0.00,,---,0.00,VWS V14.01,2013-04-30 14:56:00,
2013-04-30 11:02:00,67.4,65.3,30.05,ESE,104,10.0,13.0,93,0.00,,---,0.00,VWS V14.01,2013-04-30 15:02:00,
2013-04-30 11:07:00,67.6,65.2,30.05,ESE,117,7.0,14.0,92,0.00,,---,0.00,VWS V14.01,2013-04-30 15:07:00,
2013-04-30 11:12:00,67.9,65.5,30.05,East,98,12.0,16.0,92,0.00,,---,0.00,VWS V14.01,2013-04-30 15:12:00,
2013-04-30 11:17:00,67.9,65.2,30.06,ESE,103,9.0,16.0,91,0.00,,---,0.00,VWS V14.01,2013-04-30 15:17:00,
2013-04-30 11:22:00,67.7,65.0,30.06,ESE,107,8.0,16.0,91,0.00,,---,0.00,VWS V14.01,2013-04-30 15:22:00,
2013-04-30 11:27:00,67.5,64.5,30.06,ESE,102,10.0,16.0,90,0.00,,---,0.00,VWS V14.01,2013-04-30 15:27:00,
2013-04-30 11:32:00,67.2,64.2,30.06,ESE,119,10.0,16.0,90,0.00,,---,0.00,VWS V14.01,2013-04-30 15:32:00,
2013-04-30 11:37:00,66.5,63.5,30.06,East,101,7.0,16.0,90,0.00,,---,0.00,VWS V14.01,2013-04-30 15:37:00,
2013-04-30 11:42:00,66.1,63.4,30.06,SE,134,5.0,16.0,91,0.00,,---,0.00,VWS V14.01,2013-04-30 15:42:00,
2013-04-30 11:47:00,66.0,63.3,30.06,ESE,110,11.0,16.0,91,0.00,,---,0.00,VWS V14.01,2013-04-30 15:47:00,
2013-04-30 11:52:00,66.1,63.7,30.06,SE,124,7.0,16.0,92,0.00,,---,0.00,VWS V14.01,2013-04-30 15:52:00,
2013-04-30 11:57:00,66.1,63.7,30.06,East,93,4.0,16.0,92,0.00,,---,0.00,VWS V14.01,2013-04-30 15:57:00,
2013-04-30 12:02:00,66.2,63.5,30.05,ESE,113,6.0,12.0,91,0.00,,---,0.00,VWS V14.01,2013-04-30 16:02:00,
2013-04-30 12:07:00,65.9,63.2,30.05,ESE,113,7.0,13.0,91,0.00,,---,0.00,VWS V14.01,2013-04-30 16:07:00,
2013-04-30 12:12:00,65.8,63.1,30.05,ESE,110,8.0,13.0,91,0.00,,---,0.00,VWS V14.01,2013-04-30 16:12:00,
2013-04-30 12:17:00,65.8,63.1,30.05,ESE,115,9.0,13.0,91,0.00,,---,0.00,VWS V14.01,2013-04-30 16:17:00,
2013-04-30 12:22:00,65.8,63.4,30.05,SE,128,9.0,14.0,92,0.00,,---,0.00,VWS V14.01,2013-04-30 16:22:00,
2013-04-30 12:27:00,65.9,63.5,30.05,ESE,111,9.0,14.0,92,0.00,,---,0.00,VWS V14.01,2013-04-30 16:27:00,
2013-04-30 12:32:00,66.2,63.8,30.06,SSE,163,9.0,12.0,92,0.00,,---,0.00,VWS V14.01,2013-04-30 16:32:00,
2013-04-30 12:37:00,66.3,63.9,30.06,ESE,123,8.0,13.0,92,0.00,,---,0.00,VWS V14.01,2013-04-30 16:37:00,
2013-04-30 12:42:00,66.4,64.0,30.06,ESE,111,9.0,17.0,92,0.00,,---,0.00,VWS V14.01,2013-04-30 16:42:00,
2013-04-30 12:47:00,66.3,63.9,30.05,SE,124,9.0,17.0,92,0.00,,---,0.00,VWS V14.01,2013-04-30 16:47:00,
2013-04-30 12:53:00,66.1,63.4,30.05,ESE,111,5.0,17.0,91,0.00,,---,0.00,VWS V14.01,2013-04-30 16:53:00,
2013-04-30 12:58:00,66.1,63.7,30.05,East,96,9.0,9.0,92,0.00,,---,0.00,VWS V14.01,2013-04-30 16:58:00,
2013-04-30 13:03:00,66.1,63.7,30.05,ESE,105,7.0,13.0,92,0.00,,---,0.00,VWS V14.01,2013-04-30 17:03:00,
2013-04-30 13:08:00,66.3,63.9,30.05,SE,136,6.0,13.0,92,0.00,,---,0.00,VWS V14.01,2013-04-30 17:08:00,
2013-04-30 13:13:00,66.3,63.9,30.05,SE,129,9.0,14.0,92,0.00,,---,0.00,VWS V14.01,2013-04-30 17:13:00,
2013-04-30 13:18:00,66.5,64.1,30.05,SE,134,6.0,14.0,92,0.00,,---,0.00,VWS V14.01,2013-04-30 17:18:00,
2013-04-30 13:23:00,66.7,64.0,30.04,SE,124,5.0,14.0,91,0.00,,---,0.00,VWS V14.01,2013-04-30 17:23:00,
2013-04-30 13:28:00,66.8,64.1,30.04,SE,127,6.0,10.0,91,0.00,,---,0.00,VWS V14.01,2013-04-30 17:28:00,
2013-04-30 13:33:00,66.9,64.2,30.04,SE,136,11.0,12.0,91,0.00,,---,0.00,VWS V14.01,2013-04-30 17:33:00,
2013-04-30 13:38:00,67.0,64.3,30.04,SE,134,4.0,12.0,91,0.00,,---,0.00,VWS V14.01,2013-04-30 17:38:00,
2013-04-30 13:43:00,67.0,64.0,30.03,ESE,119,7.0,12.0,90,0.00,,---,0.00,VWS V14.01,2013-04-30 17:43:00,
2013-04-30 13:48:00,67.1,64.1,30.04,SE,127,5.0,12.0,90,0.00,,---,0.00,VWS V14.01,2013-04-30 17:48:00,
2013-04-30 13:53:00,67.2,64.2,30.04,ESE,107,7.0,12.0,90,0.00,,---,0.00,VWS V14.01,2013-04-30 17:53:00,
2013-04-30 13:58:00,67.1,64.1,30.04,SE,125,10.0,10.0,90,0.00,,---,0.00,VWS V14.01,2013-04-30 17:58:00,
2013-04-30 14:03:00,66.9,63.6,30.04,ESE,107,6.0,10.0,89,0.00,,---,0.00,VWS V14.01,2013-04-30 18:03:00,
2013-04-30 14:08:00,66.6,63.6,30.04,ESE,118,6.0,11.0,90,0.00,,---,0.00,VWS V14.01,2013-04-30 18:08:00,
2013-04-30 14:13:00,66.8,63.8,30.03,SE,146,8.0,11.0,90,0.00,,---,0.00,VWS V14.01,2013-04-30 18:13:00,
2013-04-30 14:18:00,67.1,64.1,30.03,SE,134,4.0,11.0,90,0.00,,---,0.00,VWS V14.01,2013-04-30 18:18:00,
2013-04-30 14:23:00,67.5,64.5,30.03,ESE,110,6.0,11.0,90,0.00,,---,0.00,VWS V14.01,2013-04-30 18:23:00,
2013-04-30 14:28:00,67.9,64.5,30.03,ESE,121,4.0,10.0,89,0.00,,---,0.00,VWS V14.01,2013-04-30 18:28:00,
2013-04-30 14:33:00,68.2,64.8,30.03,ESE,109,10.0,11.0,89,0.00,,---,0.00,VWS V14.01,2013-04-30 18:33:00,
2013-04-30 14:39:00,68.3,64.6,30.03,SE,131,10.0,11.0,88,0.00,,---,0.00,VWS V14.01,2013-04-30 18:39:00,
2013-04-30 14:44:00,68.1,64.1,30.03,SE,136,9.0,11.0,87,0.00,,---,0.00,VWS V14.01,2013-04-30 18:44:00,
2013-04-30 14:49:00,67.9,63.9,30.03,SE,134,7.0,11.0,87,0.00,,---,0.00,VWS V14.01,2013-04-30 18:49:00,
2013-04-30 14:54:00,68.0,64.3,30.03,SE,138,6.0,11.0,88,0.00,,---,0.00,VWS V14.01,2013-04-30 18:54:00,
2013-04-30 14:59:00,68.2,64.5,30.03,SE,136,4.0,8.0,88,0.00,,---,0.00,VWS V14.01,2013-04-30 18:59:00,
2013-04-30 15:04:00,68.3,64.3,30.03,SE,136,3.0,9.0,87,0.00,,---,0.00,VWS V14.01,2013-04-30 19:04:00,
2013-04-30 15:09:00,68.2,64.2,30.03,ESE,123,3.0,9.0,87,0.00,,---,0.00,VWS V14.01,2013-04-30 19:09:00,
2013-04-30 15:14:00,68.1,64.1,30.03,SE,130,6.0,10.0,87,0.00,,---,0.00,VWS V14.01,2013-04-30 19:14:00,
2013-04-30 15:19:00,68.3,64.3,30.03,ESE,123,3.0,10.0,87,0.00,,---,0.00,VWS V14.01,2013-04-30 19:19:00,
2013-04-30 15:24:00,68.4,64.1,30.03,ESE,123,5.0,10.0,86,0.00,,---,0.00,VWS V14.01,2013-04-30 19:24:00,
2013-04-30 15:29:00,68.5,64.2,30.02,SE,132,6.0,10.0,86,0.00,,---,0.00,VWS V14.01,2013-04-30 19:29:00,
2013-04-30 15:34:00,68.5,64.2,30.02,SE,124,9.0,11.0,86,0.00,,---,0.00,VWS V14.01,2013-04-30 19:34:00,
2013-04-30 15:39:00,68.3,64.0,30.02,ESE,119,7.0,11.0,86,0.00,,---,0.00,VWS V14.01,2013-04-30 19:39:00,
2013-04-30 15:44:00,68.5,64.2,30.03,ESE,116,4.0,11.0,86,0.00,,---,0.00,VWS V14.01,2013-04-30 19:44:00,
2013-04-30 15:49:00,68.4,63.7,30.03,ESE,112,10.0,11.0,85,0.00,,---,0.00,VWS V14.01,2013-04-30 19:49:00,
2013-04-30 15:54:00,68.5,63.8,30.03,ESE,115,6.0,11.0,85,0.00,,---,0.00,VWS V14.01,2013-04-30 19:54:00,
2013-04-30 15:59:00,68.4,63.7,30.03,SE,128,5.0,7.0,85,0.00,,---,0.00,VWS V14.01,2013-04-30 19:59:00,
2013-04-30 16:04:00,68.4,63.7,30.03,ESE,119,3.0,10.0,85,0.00,,---,0.00,VWS V14.01,2013-04-30 20:04:00,
2013-04-30 16:09:00,68.2,63.5,30.03,ESE,119,9.0,11.0,85,0.00,,---,0.00,VWS V14.01,2013-04-30 20:09:00,
2013-04-30 16:14:00,68.0,63.0,30.03,East,98,10.0,11.0,84,0.00,,---,0.00,VWS V14.01,2013-04-30 20:14:00,
2013-04-30 16:19:00,67.6,62.6,30.03,East,98,6.0,11.0,84,0.00,,---,0.00,VWS V14.01,2013-04-30 20:19:00,
2013-04-30 16:24:00,67.2,62.5,30.03,ENE,75,4.0,11.0,85,0.00,,---,0.00,VWS V14.01,2013-04-30 20:24:00,
2013-04-30 16:30:00,67.0,62.3,30.03,East,93,7.0,9.0,85,0.00,,---,0.00,VWS V14.01,2013-04-30 20:30:00,
2013-04-30 16:34:00,66.9,62.2,30.03,ESE,107,7.0,11.0,85,0.00,,---,0.00,VWS V14.01,2013-04-30 20:34:00,
2013-04-30 16:39:00,66.8,62.2,30.03,ESE,116,10.0,12.0,85,0.00,,---,0.00,VWS V14.01,2013-04-30 20:39:00,
2013-04-30 16:44:00,66.9,62.6,30.03,ESE,102,9.0,12.0,86,0.00,,---,0.00,VWS V14.01,2013-04-30 20:44:00,
2013-04-30 16:50:00,66.9,62.6,30.03,East,88,6.0,12.0,86,0.00,,---,0.00,VWS V14.01,2013-04-30 20:50:00,
2013-04-30 16:55:00,67.0,62.7,30.03,East,101,10.0,12.0,86,0.00,,---,0.00,VWS V14.01,2013-04-30 20:55:00,
2013-04-30 17:00:00,67.0,62.3,30.04,East,96,6.0,10.0,85,0.00,,---,0.00,VWS V14.01,2013-04-30 21:00:00,
2013-04-30 17:05:00,66.9,62.2,30.04,East,85,6.0,10.0,85,0.00,,---,0.00,VWS V14.01,2013-04-30 21:05:00,
2013-04-30 17:10:00,66.9,62.6,30.04,East,88,6.0,12.0,86,0.00,,---,0.00,VWS V14.01,2013-04-30 21:10:00,
2013-04-30 17:15:00,66.8,62.2,30.04,East,81,10.0,12.0,85,0.00,,---,0.00,VWS V14.01,2013-04-30 21:15:00,
2013-04-30 17:20:00,66.7,62.0,30.04,East,93,7.0,12.0,85,0.00,,---,0.00,VWS V14.01,2013-04-30 21:20:00,
2013-04-30 17:25:00,66.7,62.0,30.03,East,86,6.0,12.0,85,0.00,,---,0.00,VWS V14.01,2013-04-30 21:25:00,
2013-04-30 17:30:00,66.7,62.4,30.03,ESE,103,8.0,12.0,86,0.00,,---,0.00,VWS V14.01,2013-04-30 21:30:00,
2013-04-30 17:35:00,66.9,62.6,30.03,East,90,9.0,14.0,86,0.00,,---,0.00,VWS V14.01,2013-04-30 21:35:00,
2013-04-30 17:40:00,67.0,62.7,30.03,ESE,110,8.0,14.0,86,0.00,,---,0.00,VWS V14.01,2013-04-30 21:40:00,
2013-04-30 17:45:00,66.7,62.0,30.03,ENE,65,4.0,14.0,85,0.00,,---,0.00,VWS V14.01,2013-04-30 21:45:00,
2013-04-30 17:50:00,66.4,62.1,30.03,ENE,67,4.0,14.0,86,0.00,,---,0.00,VWS V14.01,2013-04-30 21:50:00,
2013-04-30 17:55:00,66.3,62.0,30.04,ENE,65,6.0,14.0,86,0.00,,---,0.00,VWS V14.01,2013-04-30 21:55:00,
2013-04-30 18:00:00,66.3,62.0,30.04,ENE,58,6.0,7.0,86,0.00,,---,0.00,VWS V14.01,2013-04-30 22:00:00,
2013-04-30 18:05:00,66.5,62.2,30.04,East,90,9.0,11.0,86,0.00,,---,0.00,VWS V14.01,2013-04-30 22:05:00,
2013-04-30 18:10:00,66.8,62.2,30.04,East,92,5.0,11.0,85,0.00,,---,0.00,VWS V14.01,2013-04-30 22:10:00,
2013-04-30 18:15:00,67.2,62.2,30.04,ESE,121,5.0,12.0,84,0.00,,---,0.00,VWS V14.01,2013-04-30 22:15:00,
2013-04-30 18:20:00,67.4,62.4,30.04,East,90,6.0,12.0,84,0.00,,---,0.00,VWS V14.01,2013-04-30 22:20:00,
2013-04-30 18:25:00,67.3,62.0,30.04,ESE,108,5.0,12.0,83,0.00,,---,0.00,VWS V14.01,2013-04-30 22:25:00,
2013-04-30 18:30:00,67.0,61.7,30.05,ENE,70,5.0,9.0,83,0.00,,---,0.00,VWS V14.01,2013-04-30 22:30:00,
2013-04-30 18:35:00,66.9,61.6,30.05,East,92,9.0,10.0,83,0.00,,---,0.00,VWS V14.01,2013-04-30 22:35:00,
2013-04-30 18:40:00,66.7,61.4,30.05,East,88,7.0,12.0,83,0.00,,---,0.00,VWS V14.01,2013-04-30 22:40:00,
2013-04-30 18:45:00,66.6,61.3,30.04,ENE,71,6.0,12.0,83,0.00,,---,0.00,VWS V14.01,2013-04-30 22:45:00,
2013-04-30 18:50:00,66.6,60.9,30.05,ENE,74,6.0,12.0,82,0.00,,---,0.00,VWS V14.01,2013-04-30 22:50:00,
2013-04-30 18:55:00,66.7,61.4,30.05,ENE,64,6.0,12.0,83,0.00,,---,0.00,VWS V14.01,2013-04-30 22:55:00,
2013-04-30 19:00:00,66.6,60.9,30.05,ENE,70,4.0,9.0,82,0.00,,---,0.00,VWS V14.01,2013-04-30 23:00:00,
2013-04-30 19:05:00,66.6,60.9,30.05,ENE,63,5.0,9.0,82,0.00,,---,0.00,VWS V14.01,2013-04-30 23:05:00,
2013-04-30 19:10:00,66.5,60.8,30.05,ENE,63,7.0,9.0,82,0.00,,---,0.00,VWS V14.01,2013-04-30 23:10:00,
2013-04-30 19:15:00,66.5,60.8,30.05,ENE,65,5.0,10.0,82,0.00,,---,0.00,VWS V14.01,2013-04-30 23:15:00,
2013-04-30 19:20:00,66.6,60.9,30.05,ENE,67,5.0,10.0,82,0.00,,---,0.00,VWS V14.01,2013-04-30 23:20:00,
2013-04-30 19:25:00,66.6,60.9,30.05,ENE,74,5.0,10.0,82,0.00,,---,0.00,VWS V14.01,2013-04-30 23:25:00,
2013-04-30 19:30:00,66.8,61.1,30.06,ENE,70,3.0,8.0,82,0.00,,---,0.00,VWS V14.01,2013-04-30 23:30:00,
2013-04-30 19:36:00,67.0,61.7,30.06,ENE,63,3.0,8.0,83,0.00,,---,0.00,VWS V14.01,2013-04-30 23:36:00,
2013-04-30 19:41:00,67.0,61.7,30.06,NE,37,7.0,8.0,83,0.00,,---,0.00,VWS V14.01,2013-04-30 23:41:00,
2013-04-30 19:46:00,67.0,61.3,30.06,NE,39,9.0,10.0,82,0.00,,---,0.00,VWS V14.01,2013-04-30 23:46:00,
2013-04-30 19:51:00,67.0,61.3,30.06,NE,51,6.0,11.0,82,0.00,,---,0.00,VWS V14.01,2013-04-30 23:51:00,
2013-04-30 19:56:00,67.0,61.3,30.06,NE,44,5.0,11.0,82,0.00,,---,0.00,VWS V14.01,2013-04-30 23:56:00,
2013-04-30 20:01:00,67.0,61.3,30.06,NE,45,5.0,7.0,82,0.00,,---,0.00,VWS V14.01,2013-05-01 00:01:00,
2013-04-30 20:06:00,67.0,61.7,30.06,NE,53,3.0,7.0,83,0.00,,---,0.00,VWS V14.01,2013-05-01 00:06:00,
2013-04-30 20:11:00,67.0,61.7,30.06,ENE,71,5.0,7.0,83,0.00,,---,0.00,VWS V14.01,2013-05-01 00:11:00,
2013-04-30 20:16:00,67.0,62.0,30.06,NNE,26,6.0,7.0,84,0.00,,---,0.00,VWS V14.01,2013-05-01 00:16:00,
2013-04-30 20:21:00,66.8,61.8,30.07,NNE,13,5.0,7.0,84,0.00,,---,0.00,VWS V14.01,2013-05-01 00:21:00,
2013-04-30 20:26:00,66.6,61.6,30.07,North,5,3.0,7.0,84,0.00,,---,0.00,VWS V14.01,2013-05-01 00:26:00,
2013-04-30 20:31:00,66.4,61.8,30.07,North,5,3.0,4.0,85,0.00,,---,0.00,VWS V14.01,2013-05-01 00:31:00,
2013-04-30 20:36:00,66.3,62.0,30.07,North,11,4.0,5.0,86,0.00,,---,0.00,VWS V14.01,2013-05-01 00:36:00,
2013-04-30 20:41:00,66.3,62.0,30.07,North,9,4.0,5.0,86,0.00,,---,0.00,VWS V14.01,2013-05-01 00:41:00,
2013-04-30 20:46:00,66.3,62.0,30.07,North,9,3.0,5.0,86,0.00,,---,0.00,VWS V14.01,2013-05-01 00:46:00,
2013-04-30 20:51:00,66.4,62.1,30.08,North,9,3.0,5.0,86,0.00,,---,0.00,VWS V14.01,2013-05-01 00:51:00,
2013-04-30 20:56:00,66.4,62.4,30.07,North,9,2.0,5.0,87,0.00,,---,0.00,VWS V14.01,2013-05-01 00:56:00,
2013-04-30 21:01:00,66.5,62.5,30.08,North,9,3.0,3.0,87,0.00,,---,0.00,VWS V14.01,2013-05-01 01:01:00,
2013-04-30 21:06:00,66.5,62.5,30.08,North,9,2.0,3.0,87,0.00,,---,0.00,VWS V14.01,2013-05-01 01:06:00,
2013-04-30 21:11:00,66.4,62.4,30.08,North,9,2.0,3.0,87,0.00,,---,0.00,VWS V14.01,2013-05-01 01:11:00,
2013-04-30 21:16:00,66.4,62.4,30.09,NNE,13,3.0,4.0,87,0.00,,---,0.00,VWS V14.01,2013-05-01 01:16:00,
2013-04-30 21:21:00,66.4,62.4,30.09,North,11,3.0,6.0,87,0.00,,---,0.00,VWS V14.01,2013-05-01 01:21:00,
2013-04-30 21:26:00,66.4,62.4,30.09,NNE,31,4.0,6.0,87,0.00,,---,0.00,VWS V14.01,2013-05-01 01:26:00,
2013-04-30 21:31:00,66.5,62.5,30.09,NE,36,2.0,4.0,87,0.00,,---,0.00,VWS V14.01,2013-05-01 01:31:00,
2013-04-30 21:37:00,66.5,62.5,30.09,NE,53,1.0,4.0,87,0.00,,---,0.00,VWS V14.01,2013-05-01 01:37:00,
2013-04-30 21:42:00,66.4,62.4,30.09,NNE,22,4.0,5.0,87,0.00,,---,0.00,VWS V14.01,2013-05-01 01:42:00,
2013-04-30 21:47:00,66.3,62.3,30.09,NNE,24,4.0,6.0,87,0.00,,---,0.00,VWS V14.01,2013-05-01 01:47:00,
2013-04-30 21:52:00,66.1,62.1,30.09,NNE,18,4.0,6.0,87,0.00,,---,0.00,VWS V14.01,2013-05-01 01:52:00,
2013-04-30 21:57:00,66.1,62.5,30.10,NNE,25,4.0,6.0,88,0.00,,---,0.00,VWS V14.01,2013-05-01 01:57:00,
2013-04-30 22:02:00,66.0,62.7,30.10,NNE,13,5.0,6.0,89,0.00,,---,0.00,VWS V14.01,2013-05-01 02:02:00,
2013-04-30 22:07:00,66.1,62.8,30.10,NNE,19,9.0,9.0,89,0.00,,---,0.00,VWS V14.01,2013-05-01 02:07:00,
2013-04-30 22:12:00,66.0,62.7,30.10,NNE,30,10.0,15.0,89,0.00,,---,0.00,VWS V14.01,2013-05-01 02:12:00,
2013-04-30 22:17:00,66.0,62.7,30.10,NNE,28,9.0,15.0,89,0.00,,---,0.00,VWS V14.01,2013-05-01 02:17:00,
2013-04-30 22:22:00,66.0,62.7,30.10,NE,39,9.0,15.0,89,0.00,,---,0.00,VWS V14.01,2013-05-01 02:22:00,
2013-04-30 22:27:00,65.8,62.5,30.10,NNE,27,7.0,15.0,89,0.00,,---,0.00,VWS V14.01,2013-05-01 02:27:00,
2013-04-30 22:32:00,65.7,62.4,30.10,NE,39,14.0,14.0,89,0.00,,---,0.00,VWS V14.01,2013-05-01 02:32:00,
2013-04-30 22:37:00,65.5,61.9,30.10,NNE,16,11.0,15.0,88,0.00,,---,0.00,VWS V14.01,2013-05-01 02:37:00,
2013-04-30 22:42:00,65.4,61.8,30.10,NE,34,10.0,15.0,88,0.00,,---,0.00,VWS V14.01,2013-05-01 02:42:00,
2013-04-30 22:47:00,65.3,61.7,30.10,NNE,23,10.0,15.0,88,0.00,,---,0.00,VWS V14.01,2013-05-01 02:47:00,
2013-04-30 22:52:00,65.1,61.5,30.10,NE,36,11.0,15.0,88,0.00,,---,0.00,VWS V14.01,2013-05-01 02:52:00,
2013-04-30 22:57:00,64.9,61.3,30.11,NNE,13,8.0,15.0,88,0.00,,---,0.00,VWS V14.01,2013-05-01 02:57:00,
2013-04-30 23:02:00,64.7,61.1,30.10,NNE,17,11.0,12.0,88,0.00,,---,0.00,VWS V14.01,2013-05-01 03:02:00,
2013-04-30 23:07:00,64.6,61.3,30.11,NNE,28,11.0,12.0,89,0.00,,---,0.00,VWS V14.01,2013-05-01 03:07:00,
2013-04-30 23:12:00,64.4,61.1,30.11,NNE,22,10.0,14.0,89,0.00,,---,0.00,VWS V14.01,2013-05-01 03:12:00,
2013-04-30 23:17:00,64.3,61.0,30.10,NNE,24,9.0,14.0,89,0.00,,---,0.00,VWS V14.01,2013-05-01 03:17:00,
2013-04-30 23:22:00,64.2,61.2,30.10,NNE,27,9.0,14.0,90,0.00,,---,0.00,VWS V14.01,2013-05-01 03:22:00,
2013-04-30 23:27:00,64.2,61.2,30.10,NE,40,12.0,14.0,90,0.00,,---,0.00,VWS V14.01,2013-05-01 03:27:00,
2013-04-30 23:32:00,64.1,61.1,30.10,NNE,31,10.0,13.0,90,0.00,,---,0.00,VWS V14.01,2013-05-01 03:32:00,
2013-04-30 23:37:00,64.1,61.1,30.10,NNE,24,9.0,14.0,90,0.00,,---,0.00,VWS V14.01,2013-05-01 03:37:00,
2013-04-30 23:42:00,64.1,60.8,30.10,NNE,33,8.0,15.0,89,0.00,,---,0.00,VWS V14.01,2013-05-01 03:42:00,
2013-04-30 23:47:00,64.0,60.7,30.11,NE,36,11.0,15.0,89,0.00,,---,0.00,VWS V14.01,2013-05-01 03:47:00,
2013-04-30 23:52:00,64.1,60.8,30.11,NE,34,10.0,15.0,89,0.00,,---,0.00,VWS V14.01,2013-05-01 03:52:00,
2013-04-30 23:57:00,64.1,60.8,30.11,NE,46,11.0,15.0,89,0.00,,---,0.00,VWS V14.01,2013-05-01 03:57:00,